Home   Weather   Sawai Madhopur   Past weeks

Flag for India Past Weather in Sawai Madhopur, Rajasthan, India — Yesterday and Last 2 Weeks

Now
84 °F

Passing clouds.


Feels Like: 91 °F
Forecast: 81 / 98 °F
Wind: 13 mph from West

Location: Jaipur / Sanganer

Current Time: Aug 16, 2017 at 11:12:21 pm

Latest Report: Aug 16, 2017 at 10:30 pm


Visibility: 2 mi

Pressure: 29.65 "Hg

Humidity: 70%

Dew Point: 73 °F

Location of Sawai MadhopurLocation

Past Weather in Sawai Madhopur — Graph

°F

Sawai Madhopur Temperature Yesterday

Maximum temperature yesterday: 93 °F (at 3:00 pm)
Minimum temperature yesterday: 79 °F (at 4:00 am)
Average temperature yesterday: 85 °F

High & Low Weather Summary for the Past Weeks

 TemperatureHumidityPressure
High95 °F (Aug 16, 3:30 pm)100% (Aug 2, 4:30 am)29.80 "Hg (Aug 2, 4:30 am)
Low75 °F (Aug 3, 5:30 am)50% (Aug 16, 3:30 pm)29.50 "Hg (Aug 4, 4:30 pm)
Average83 °F76%29.65 "Hg
* Reported Aug 1 9:30 pm — Aug 16 9:30 pm, Sawai Madhopur. Weather by CustomWeather, © 2017

Note: Actual official high and low records may vary slightly from our data, if they occured in-between our weather recording intervals... More about our weather records

Advertising

Sawai Madhopur Weather History for the Previous 24 Hours

Scroll right to see more
 ConditionsComfort  
Time TempWeatherWind HumidityBarometerVisibility
9:30 pm
Wed, Aug 16
86 °FPassing clouds.15 mph66%29.62 "Hg2 mi
8:30 pm88 °FPassing clouds.12 mph62%29.62 "Hg2 mi
7:30 pm90 °FScattered clouds.14 mph59%29.62 "Hg2 mi
7:00 pm90 °FScattered clouds.13 mph63%29.59 "Hg2 mi
6:30 pm91 °FScattered clouds.14 mph59%29.59 "Hg3 mi
6:00 pm93 °FScattered clouds.16 mph53%29.59 "Hg3 mi
5:30 pm93 °FScattered clouds.16 mph53%29.59 "Hg3 mi
5:00 pm93 °FScattered clouds.14 mph53%29.59 "Hg3 mi
4:30 pm93 °FScattered clouds.13 mph53%29.59 "Hg3 mi
4:00 pm95 °FScattered clouds.12 mph50%29.62 "Hg3 mi
3:30 pm95 °FScattered clouds.14 mph50%29.62 "Hg3 mi
3:00 pm93 °FScattered clouds.1 mph53%29.62 "Hg3 mi
2:30 pm93 °FScattered clouds.14 mph53%29.65 "Hg3 mi
2:00 pm93 °FScattered clouds.10 mph53%29.65 "Hg3 mi
1:30 pm93 °FScattered clouds.12 mph53%29.68 "Hg3 mi
1:00 pm91 °FScattered clouds.14 mph56%29.68 "Hg3 mi
12:30 pm91 °FScattered clouds.13 mph59%29.71 "Hg3 mi
12:00 pm91 °FScattered clouds.12 mph59%29.71 "Hg3 mi
11:30 am90 °FScattered clouds.12 mph59%29.71 "Hg3 mi
11:00 am90 °FScattered clouds.13 mph63%29.74 "Hg3 mi
10:30 am88 °FScattered clouds.13 mph62%29.74 "Hg3 mi
10:00 am86 °FScattered clouds.12 mph66%29.74 "Hg2 mi
9:30 am84 °FScattered clouds.10 mph70%29.74 "Hg2 mi
9:00 am84 °FScattered clouds.9 mph70%29.74 "Hg2 mi
8:30 am82 °FScattered clouds.9 mph74%29.74 "Hg2 mi
8:00 am82 °FScattered clouds.7 mph74%29.71 "Hg2 mi
7:30 am81 °FScattered clouds.6 mph74%29.71 "Hg2 mi
7:00 am81 °FScattered clouds.9 mph74%29.71 "Hg2 mi
6:30 am81 °FScattered clouds.8 mph74%29.71 "Hg2 mi
6:00 am81 °FPassing clouds.9 mph74%29.68 "Hg2 mi
5:30 am79 °FPassing clouds.6 mph79%29.68 "Hg2 mi
5:00 am79 °FPassing clouds.7 mph79%29.68 "Hg2 mi
4:00 am81 °FPassing clouds.6 mph74%29.65 "Hg2 mi
3:00 am81 °FPassing clouds.7 mph74%29.65 "Hg2 mi
2:30 am81 °FPassing clouds.7 mph74%29.65 "Hg2 mi
2:00 am81 °FPassing clouds.7 mph74%29.65 "Hg2 mi
1:00 am81 °FPassing clouds.7 mph79%29.68 "Hg2 mi
12:30 am81 °FPassing clouds.No wind79%29.68 "Hg2 mi
12:00 am82 °FPassing clouds.8 mph74%29.68 "Hg2 mi
11:30 pm
Tue, Aug 15
82 °FPassing clouds.7 mph79%29.71 "Hg2 mi
11:00 pm82 °FPassing clouds.8 mph74%29.71 "Hg2 mi
Weather by CustomWeather, © 2017

See weather overviewHow to use our weather pages